Regional Weather Roundup
Issued by NWS Huntsville, AL

Home | Current Version | Previous Version | Text Only | Print | Product List | Glossary On
Versions: 1 2 3 4 5 6 7 8 9 10 11 12 13 14 15 16 17 18 19 20 21 22 23 24 25 26 27 28 29 30 31 32 33 34 35 36 37 38 39 40 41 42 43 44 45 46 47 48 49 50
000
ASUS44 KHUN 310510
RWRHUN

WEATHER ROUNDUP FOR THE TENNESSEE VALLEY
NATIONAL WEATHER SERVICE HUNTSVILLE AL
1200 AM CDT FRI JUL 31 2015

ALZ001>004-310600-
NORTHWEST ALABAMA

CITY           SKY/WX    TMP DP  RH WIND       PRES   REMARKS
BANKHEAD NF      N/A     72  62  72 W1          N/A
SHOALS AIRPORT CLEAR     75  63  66 N8        30.07F
SHOALS TVA RES   N/A     75 N/A N/A MISG        N/A
$$

ALZ005>007-016-310600-
NORTH CENTRAL ALABAMA

CITY           SKY/WX    TMP DP  RH WIND       PRES   REMARKS
DECATUR AP     CLEAR     68  64  87 CALM      30.06S
HUNTSVILLE AP  CLEAR     74  63  68 CALM      30.05F
HUN NWS/UAH      N/A     76  59  56 NE2         N/A
MERIDIANVILLE  CLEAR     68  59  73 CALM      30.06F
REDSTONE ARSN  CLEAR     73  62  68 N7        30.04F
VINEMONT AP    FAIR      71  63  75 N5        30.07F
$$

ALZ008>010-310600-
NORTHEAST ALABAMA

CITY           SKY/WX    TMP DP  RH WIND       PRES   REMARKS
ALBERTVILLE    CLEAR     73  68  83 N7        30.04F
FORT PAYNE     CLEAR     70  63  78 CALM      30.03F
SCOTTSBORO AP  CLEAR     72  64  78 NE3       30.04F
SCOTTSBORO HCN   N/A     70 N/A N/A MISG        N/A
VALLEY HEAD      N/A     68 N/A N/A MISG        N/A
$$

TNZ076-096-097-310600-
SOUTHEASTERN MIDDLE TENNESSEE

CITY           SKY/WX    TMP DP  RH WIND       PRES   REMARKS
TULLAHOMA      CLEAR     70  61  73 N5        30.10S
WINCHESTER     CLEAR     72  63  73 CALM      30.09S
$$

...SURROUNDING SITES...

CITY           SKY/WX    TMP DP  RH WIND       PRES   REMARKS
ATLANTA        PTCLDY    78  72  81 NW8       29.96F
ANNISTON       CLEAR     80  64  58 NE10G17   29.99F
BIRMINGHAM     CLEAR     77  63  61 N7        30.03F
CHATTANOOGA    CLEAR     77  63  61 N8        30.04S
DALTON         CLEAR     73  66  78 N13       30.01F
GADSDEN        CLEAR     75  61  60 N9        30.01S
GOLDEN TRNGL   CLEAR     73  63  68 N8        30.01F
HALEYVILLE     FAIR      72  63  73 N6        30.09S
JACKSON TN     CLEAR     68  63  84 CALM      30.09F
MEMPHIS        PTCLDY    79  61  53 NE8       30.08S
NASHVILLE      CLEAR     74  62  66 N6        30.09S
ROME           CLEAR     79  65  62 N10       30.00F
SAVANNAH       CLEAR     66  32  28 CALM      30.09S
TUPELO         CLEAR     71  64  78 NE8       30.05F
TUSCALOOSA     CLEAR     79  64  60 N8        30.00S
$$

...GULF COAST WEATHER...

CITY           SKY/WX    TMP DP  RH WIND       PRES   REMARKS
GULFPORT       CLOUDY    76  73  91 CALM      29.94F
PASCAGOULA     CLOUDY    75  74  96 CALM      29.94F
MOBILE         CLOUDY    75  74  96 NW3       29.95F
GULF SHORES    CLOUDY    78  72  82 NW3       29.94R
PENSACOLA      CLOUDY    78  75  90 CALM      29.93R
DESTIN         CLOUDY    81  79  94 CALM      29.93S HX  90
PANAMA CITY    PTCLDY    79  77  95 E3        29.93F
APPALACHICOLA  CLOUDY    84  77  79 SW5       29.93F HX  94
$$



USA.gov is the U.S. government's official web portal to all federal, state and local government web resources and services.